GEFSMA_con_probscp_186.txt.gz
Probability
3 3 2 2 1 0 0 0 1 2 3 5 6 5 4 3 2 1 0 2 3 2 2 4 7 7 7 8 8 6 4 3 5 6 5 3 2 2 2 2 2 3 3
3 2 1 1 0 0 0 0 0 1 2 4 5 5 4 3 3 2 1 2 3 3 3 3 4 5 7 8 9 8 7 5 6 7 6 4 3 3 3 3 2 2 2
2 1 0 0 0 0 0 0 0 0 1 2 4 4 4 4 4 3 2 2 3 4 4 3 2 4 7 9 10 10 10 9 8 7 7 6 5 4 4 4 3 1 1
2 1 0 0 0 0 0 0 0 0 0 1 2 2 3 3 3 3 3 2 2 3 3 3 5 6 7 8 9 9 10 9 9 10 9 8 7 7 6 5 3 1 1
2 1 1 0 0 0 0 0 0 0 0 1 1 1 1 1 2 3 2 1 1 1 1 3 6 9 9 8 8 9 8 7 9 11 10 9 9 9 7 4 3 2 1
2 1 1 0 0 0 0 0 0 0 0 0 0 0 0 0 1 1 1 1 0 0 0 1 4 7 9 9 8 9 7 5 6 7 7 7 9 9 7 4 3 2 1
2 1 0 0 1 1 1 0 0 0 0 0 0 0 0 0 0 0 0 0 0 0 0 0 1 3 5 6 6 6 7 5 4 3 3 4 6 7 6 5 3 2 2
1 2 1 1 1 2 1 1 0 0 0 0 0 0 0 0 0 0 0 0 0 0 0 0 0 0 1 2 2 3 5 5 3 1 0 2 4 4 5 5 4 3 3
1 2 2 1 1 2 2 1 0 0 0 0 0 0 0 0 0 0 0 0 0 0 0 0 0 0 0 0 0 1 2 3 2 1 1 2 2 2 4 4 4 3 3
0 1 1 1 1 2 2 1 0 0 0 0 0 0 0 0 0 0 0 0 0 0 0 0 0 0 0 0 0 0 1 1 1 1 2 2 1 1 2 3 3 3 3
0 0 0 0 0 1 1 0 0 0 0 0 0 0 0 0 0 0 0 0 0 0 0 0 0 0 0 0 0 0 0 0 0 0 1 1 0 0 1 1 2 2 1
0 0 0 0 0 0 0 0 0 0 0 0 0 0 0 0 0 0 0 0 0 0 0 0 0 0 0 0 0 0 0 0 0 0 0 0 0 0 0 1 2 1 0
0 0 0 0 0 0 0 0 0 0 0 0 0 0 0 0 0 0 0 0 0 0 0 0 0 0 0 0 0 0 0 0 0 0 0 0 0 0 0 1 2 1 0
0 0 0 0 0 0 0 0 0 0 0 0 0 0 0 0 0 0 0 0 0 0 0 0 0 0 0 0 0 0 0 0 0 0 0 0 0 0 0 1 1 0 0
0 0 0 0 0 0 0 0 0 0 0 0 0 0 0 0 0 0 0 0 0 0 0 0 0 0 0 0 0 0 0 0 0 0 0 0 0 0 0 0 0 0 0
0 0 0 0 0 0 0 0 0 0 0 0 0 0 0 0 0 0 0 0 0 0 0 0 0 0 0 0 0 0 0 0 0 0 0 0 0 0 0 0 0 0 0
0 0 0 0 0 0 0 0 0 0 0 0 0 0 0 0 0 0 0 0 0 0 0 0 0 0 0 0 0 0 0 0 0 0 0 0 0 0 0 0 0 0 0
0 0 0 0 0 0 0 0 0 0 0 0 0 0 0 0 0 0 0 0 0 0 0 0 0 0 0 0 0 0 0 0 0 0 0 0 0 0 0 0 0 0 0
0 0 0 0 0 0 0 0 0 0 0 0 0 0 0 0 0 0 0 0 0 0 0 0 0 0 0 0 0 0 0 0 0 0 0 0 0 0 0 0 0 0 0
0 0 0 0 0 0 0 0 0 0 0 0 0 0 0 0 0 0 0 0 0 0 0 0 0 0 0 0 0 0 0 0 0 0 0 0 0 0 0 0 0 0 0
0 0 0 0 0 0 0 0 0 0 0 0 0 0 0 0 0 0 0 0 0 0 0 0 0 0 0 0 0 0 0 0 0 0 0 0 0 0 0 0 0 0 0
0 0 0 0 0 0 0 0 0 0 0 0 0 0 0 0 0 0 0 0 0 0 0 0 0 0 0 0 0 0 0 0 0 0 0 0 0 0 0 0 0 0 0
0 0 0 0 0 0 0 0 0 0 0 0 0 0 0 0 0 0 0 0 0 0 0 0 0 0 0 0 0 0 0 0 0 0 0 0 0 0 0 0 0 0 0
0 0 0 0 0 0 0 0 0 0 0 0 0 0 0 0 0 0 0 0 0 0 0 0 0 0 0 0 0 0 0 0 0 0 0 0 0 0 0 0 0 0 0
0 0 0 0 0 0 0 0 0 0 0 0 0 0 0 0 0 0 0 0 0 0 0 0 0 0 0 0 0 0 0 0 0 0 0 0 0 0 0 0 0 0 0
0 0 0 0 0 0 0 0 0 0 0 0 0 0 0 0 0 0 0 0 0 0 0 0 0 0 0 0 0 0 0 0 0 0 0 0 0 0 0 0 0 0 0

GEFSMA_con_probscp_192.txt.gz
Probability
23 23 24 23 19 19 19 16 14 12 11 8 5 4 4 3 4 6 12 15 15 13 11 8 7 8 9 10 12 14 15 13 12 11 10 9 8 6 4 3 4 3 3
23 23 24 23 20 19 19 16 14 13 11 8 5 4 3 3 4 6 10 14 15 14 12 9 8 9 9 10 12 14 13 13 13 11 10 10 9 7 4 3 3 3 3
22 23 25 24 21 20 18 16 14 13 11 8 5 4 4 4 4 4 7 12 15 16 13 11 11 12 10 8 11 12 11 11 12 12 11 10 9 7 5 5 3 2 2
18 21 24 24 22 19 17 15 13 13 11 9 6 6 6 5 4 3 5 10 15 17 15 15 16 16 13 11 11 12 11 10 11 12 12 11 9 8 8 7 5 3 2
13 17 21 22 21 18 15 13 13 14 13 10 7 6 6 5 3 2 4 10 15 18 18 18 18 18 17 16 15 13 11 10 10 11 11 11 11 11 11 9 7 4 4
8 12 16 18 19 17 15 13 13 14 14 10 6 5 5 4 3 3 6 11 15 18 19 18 18 18 17 17 15 12 9 9 9 10 10 10 10 11 11 9 7 6 5
4 8 12 15 17 16 14 13 14 14 11 8 6 5 3 2 2 5 9 12 14 16 16 16 15 15 16 14 11 9 8 8 9 10 10 9 9 10 9 8 7 6 6
4 5 9 12 15 14 12 12 14 14 11 8 7 6 4 2 1 5 9 12 13 14 13 12 11 12 15 14 9 8 8 7 8 9 9 8 9 8 6 6 5 5 6
5 5 7 9 11 11 11 12 14 15 14 12 10 8 7 5 2 3 8 11 11 12 11 9 7 8 11 12 10 7 7 6 5 6 7 7 7 5 3 3 3 3 4
5 5 5 6 8 10 11 12 13 15 16 16 13 10 8 7 4 4 6 9 9 9 9 7 6 6 7 8 7 5 3 2 2 2 4 4 3 1 0 1 1 2 1
5 5 4 4 6 10 11 11 12 14 16 16 14 10 7 7 7 5 4 5 5 5 6 6 5 5 6 5 4 3 1 0 0 1 2 2 1 0 0 0 0 0 0
8 6 4 5 8 10 11 10 10 12 14 14 12 9 7 7 7 6 3 1 1 2 3 4 5 5 5 5 3 1 0 0 0 1 1 1 0 0 0 0 0 0 0
8 6 5 6 8 9 8 8 8 8 9 9 8 8 7 5 6 6 4 1 0 0 1 1 2 3 3 3 1 0 0 0 0 0 0 0 0 0 0 0 0 0 0
5 4 5 6 8 8 7 5 5 5 5 5 5 6 6 5 5 5 4 2 1 0 0 0 0 1 1 1 0 0 0 0 0 0 0 0 0 0 0 0 0 0 0
4 4 5 7 7 7 6 4 3 3 3 4 4 5 7 6 5 5 4 3 1 0 0 0 0 0 0 0 0 0 0 0 0 0 0 0 0 0 0 0 0 0 0
4 4 5 6 6 5 5 4 3 3 3 4 4 5 7 7 6 5 5 3 1 0 0 0 0 0 0 0 0 0 0 0 0 0 0 0 0 0 0 0 0 0 0
3 3 3 3 3 3 3 3 3 3 3 3 4 4 5 5 5 4 4 3 1 0 0 0 0 0 0 0 0 0 0 0 0 0 0 0 0 0 0 0 0 0 0
1 1 1 1 1 1 3 3 3 3 3 3 3 3 3 4 4 3 3 1 0 0 0 0 0 0 0 0 0 0 0 0 0 0 0 0 0 0 0 0 0 0 0
0 0 0 0 0 1 2 3 2 2 3 3 3 3 3 4 4 3 1 0 0 0 0 0 0 0 0 0 0 0 0 0 0 0 0 0 0 0 0 0 0 0 0
0 0 0 0 0 0 1 1 1 1 2 3 3 3 3 3 3 1 0 0 0 0 0 0 0 0 0 0 0 0 0 0 0 0 0 0 0 0 0 0 0 0 0
0 0 0 0 0 0 0 0 0 0 1 1 3 3 3 2 1 0 0 0 1 1 1 0 0 0 0 0 0 0 0 0 0 0 0 0 0 0 0 0 0 0 0
0 0 0 0 0 0 0 0 0 0 0 1 2 2 2 1 0 0 0 0 1 1 1 0 0 0 0 0 0 0 0 0 0 0 0 0 0 0 0 0 0 0 0
0 0 0 0 0 0 0 0 0 0 0 0 1 1 1 0 0 0 0 0 0 0 0 0 0 0 0 0 0 0 0 0 0 0 0 0 0 0 0 0 0 0 0
0 0 0 0 0 0 0 0 0 0 0 0 0 0 0 0 0 0 0 0 0 0 0 0 0 0 0 0 0 0 0 0 0 0 0 0 0 0 0 0 0 0 0
1 0 0 0 0 0 0 0 0 0 0 0 0 0 0 0 0 0 0 0 0 0 0 0 0 0 0 0 0 0 0 0 0 0 0 0 0 0 0 0 0 0 0
1 1 0 0 0 0 0 0 0 0 0 0 0 0 0 0 0 0 0 0 0 0 0 0 0 0 0 0 0 0 0 0 0 0 0 0 0 0 0 0 0 0 0

GEFSMA_con_probscp_198.txt.gz
Probability
36 35 34 30 26 25 25 23 19 17 17 15 12 11 11 11 12 11 12 19 26 27 25 23 20 18 16 16 15 16 16 14 14 15 15 13 9 5 5 7 8 8 6
39 38 35 30 25 24 26 25 20 19 19 16 14 12 12 13 14 14 14 18 22 24 25 25 22 19 18 16 14 14 16 16 17 18 16 13 10 7 6 8 8 7 6
40 39 35 30 26 26 27 26 22 20 19 18 16 14 14 14 14 14 15 17 18 20 24 27 25 21 19 16 14 16 19 19 19 20 17 13 11 10 8 7 8 7 5
36 35 31 27 27 28 26 24 22 20 17 17 16 15 15 14 12 11 12 13 15 19 24 27 26 24 20 17 17 20 23 22 20 20 18 14 12 11 9 7 7 6 4
34 31 26 24 25 26 24 21 19 17 15 14 13 14 15 14 12 11 12 13 14 18 23 24 25 26 24 20 19 20 22 22 20 19 18 16 13 10 9 8 7 5 4
32 28 23 22 23 22 20 17 14 13 13 11 9 11 12 13 14 16 16 15 16 18 20 22 23 25 24 23 22 20 17 18 19 18 18 17 15 12 10 9 7 5 4
30 26 22 21 21 19 17 13 9 8 9 8 8 8 9 11 13 15 16 17 16 16 17 20 22 23 22 23 22 18 14 15 18 19 19 18 15 14 12 10 8 7 6
27 24 22 21 20 18 15 12 8 5 5 6 7 7 8 9 11 11 12 12 12 12 13 17 20 20 19 19 18 15 13 14 17 19 20 18 15 13 12 11 9 6 6
23 21 20 20 19 18 15 11 7 5 5 5 6 8 9 10 11 10 8 8 9 8 8 11 14 13 12 14 13 12 11 12 13 15 16 15 13 12 11 10 8 6 5
19 18 18 20 19 18 14 10 6 6 6 6 6 7 9 11 11 9 7 7 7 6 5 7 7 6 6 9 11 10 8 7 7 8 10 11 11 11 11 10 8 6 5
16 16 17 18 18 16 14 10 8 7 7 7 7 7 8 9 10 8 7 6 6 5 5 5 5 4 3 5 8 8 5 3 2 3 5 7 9 9 10 10 9 6 4
16 16 16 16 15 15 13 11 9 7 7 7 7 6 6 7 8 7 7 6 6 5 4 4 4 3 2 3 4 5 4 2 1 2 4 6 7 7 8 9 8 5 4
14 14 14 14 13 13 11 9 7 6 6 6 6 5 4 5 6 6 6 6 6 5 5 3 3 2 1 2 2 2 3 2 1 1 3 4 4 3 3 5 5 3 2
11 10 10 10 10 9 8 7 6 5 4 4 4 4 4 4 5 6 7 6 5 5 4 3 2 2 1 0 0 0 1 0 0 1 1 1 1 0 0 1 2 1 1
8 8 8 7 6 5 6 6 6 5 4 4 5 5 5 6 5 6 6 5 4 4 4 3 2 1 0 0 0 0 0 0 0 0 0 0 0 0 0 0 0 0 0
8 8 8 7 4 4 5 5 5 6 5 4 5 6 6 6 5 6 6 5 3 4 4 4 2 1 0 0 0 0 0 0 0 0 0 0 0 0 0 0 0 0 0
11 10 9 7 5 4 5 4 4 5 4 3 5 6 6 5 4 5 5 5 4 3 4 4 3 1 0 1 1 1 1 0 0 0 0 0 0 0 0 0 0 0 0
12 11 8 6 5 5 4 3 3 3 2 1 3 5 5 4 3 3 4 4 3 3 3 3 2 1 0 1 2 2 1 0 0 0 0 0 0 0 0 0 0 0 0
10 9 7 5 4 4 3 3 3 2 1 0 1 2 3 2 2 3 3 3 3 3 3 3 1 0 0 1 1 1 0 0 0 0 0 0 0 0 0 0 0 0 0
6 5 4 3 3 2 2 2 1 1 0 0 0 0 1 1 1 2 3 3 3 3 3 2 1 0 0 0 0 0 0 0 0 0 0 0 0 0 0 0 0 0 0
2 2 1 1 1 1 0 0 0 0 0 0 0 0 1 1 1 1 1 2 1 1 3 2 1 0 0 0 0 0 0 0 0 0 0 0 0 0 0 0 0 0 0
1 1 1 1 1 1 0 0 0 0 0 0 0 1 1 0 0 0 0 0 0 1 2 2 1 0 0 0 0 0 0 0 0 0 0 0 0 0 0 0 0 0 0
1 2 3 3 3 2 0 0 0 0 0 0 1 1 1 1 0 1 1 0 0 0 1 1 1 0 0 0 0 0 0 0 0 0 0 0 0 0 0 0 0 0 0
2 3 4 5 4 2 0 0 0 0 0 1 1 1 2 1 1 1 1 0 0 0 0 0 0 0 0 0 0 0 0 0 0 0 0 0 0 0 0 0 0 0 0
4 4 5 6 4 2 0 0 0 0 0 0 0 1 1 1 0 1 1 0 0 0 0 0 0 0 0 0 0 0 0 0 0 0 0 0 0 0 0 0 0 0 0
5 5 6 7 5 2 0 0 0 0 0 0 0 0 0 0 0 0 0 0 0 0 0 0 0 0 0 0 0 0 0 0 0 0 0 0 0 0 0 0 0 0 0

GEFSMA_con_probscp_204.txt.gz
Probability
17 16 16 15 11 9 9 8 8 9 9 7 5 3 2 3 2 1 0 1 5 8 10 11 8 5 6 10 16 17 15 15 19 22 20 14 10 7 4 4 6 9 9
17 16 16 15 12 9 7 5 5 5 5 4 3 2 2 3 2 1 0 1 4 8 11 12 10 7 5 8 14 18 16 15 18 23 23 17 10 6 5 6 7 8 8
14 14 14 13 11 8 4 2 1 1 1 1 1 1 1 2 2 1 1 1 3 6 11 14 15 12 7 7 10 15 16 15 17 22 23 18 11 6 5 6 7 7 8
12 13 13 11 9 6 2 0 0 0 0 0 0 0 1 1 1 2 2 3 3 4 6 11 15 15 11 7 7 9 11 14 16 20 20 16 11 7 5 4 3 4 5
14 14 13 10 7 4 1 0 0 0 0 0 0 0 0 0 0 1 2 3 3 2 2 4 8 12 12 9 6 6 8 12 15 17 16 13 11 8 5 3 1 1 1
16 16 12 7 5 4 2 1 0 0 0 0 0 0 0 0 0 0 2 3 3 2 1 1 2 5 8 10 9 8 9 12 14 15 13 12 11 9 6 3 2 1 1
17 15 10 5 3 3 2 1 0 0 0 0 0 0 0 0 0 1 2 3 3 2 1 1 0 1 3 7 10 11 12 13 13 12 11 12 12 9 6 5 4 3 2
17 14 8 4 2 1 1 0 0 0 0 0 0 0 0 0 0 1 2 2 2 1 1 1 2 1 1 2 5 9 12 12 11 10 10 11 11 8 6 5 5 6 5
16 12 7 4 1 0 0 0 0 0 0 0 0 0 0 0 0 0 1 1 1 0 1 2 3 3 1 0 1 4 7 8 8 8 9 9 8 6 5 4 5 6 6
13 11 7 3 1 0 0 0 0 0 0 0 0 0 0 0 0 0 0 0 0 0 1 2 3 2 0 0 0 0 2 4 6 7 8 8 6 5 4 3 3 4 3
9 8 6 3 1 0 0 0 0 0 0 0 0 0 0 0 0 0 0 0 0 0 0 1 1 0 0 0 0 0 0 2 4 6 7 7 6 5 3 2 2 2 1
6 6 6 4 1 0 0 0 0 0 0 0 0 0 0 0 0 0 0 0 0 0 0 0 0 0 0 0 0 0 0 0 2 4 5 5 5 4 3 2 2 1 0
4 5 6 5 2 1 0 0 0 0 0 0 0 0 0 0 0 0 0 0 0 0 0 0 0 0 0 0 0 1 0 0 0 1 3 3 3 3 3 2 1 0 0
4 4 5 5 3 2 1 0 0 0 0 0 0 0 0 0 0 0 0 0 0 0 0 0 0 0 0 0 0 0 0 0 0 0 1 1 1 1 2 2 1 0 0
3 3 4 4 3 2 1 0 0 0 0 0 0 0 0 0 0 0 0 0 0 0 0 0 0 0 0 0 0 0 0 0 0 0 0 0 0 0 1 1 0 0 0
3 3 4 4 3 1 1 0 0 0 0 0 0 0 0 0 0 0 0 0 0 0 0 0 0 0 0 0 0 0 0 0 0 0 0 0 0 0 0 0 0 0 0
1 2 3 4 2 1 0 0 0 0 0 0 0 0 0 0 0 0 0 0 0 0 0 0 0 0 0 0 0 0 0 0 0 0 0 0 0 0 0 0 0 0 0
0 1 1 1 1 0 0 0 0 0 0 0 0 0 0 0 0 0 0 0 0 0 0 0 0 0 0 0 0 0 0 0 0 0 0 0 0 0 0 0 0 0 0
0 0 0 0 0 0 0 0 0 0 0 0 0 0 0 0 0 0 0 0 0 0 0 0 0 0 0 0 0 0 0 0 0 0 0 0 0 0 0 0 0 0 0
0 0 0 0 0 0 0 0 0 0 0 0 0 0 0 0 0 0 0 0 0 0 0 0 0 0 0 0 0 0 0 0 0 0 0 0 0 0 0 0 0 0 0
0 0 0 0 0 0 0 0 0 0 0 0 0 0 0 0 0 0 0 0 0 0 0 0 0 0 0 0 0 0 0 0 0 0 0 0 0 0 0 0 0 0 0
0 0 0 0 0 0 0 0 0 0 0 0 0 0 0 0 0 0 0 0 0 0 0 0 0 0 0 0 0 0 0 0 0 0 0 0 0 0 0 0 0 0 0
0 0 0 0 0 0 0 0 0 0 0 0 0 0 0 0 0 0 0 0 0 0 0 0 0 0 0 0 0 0 0 0 0 0 0 0 0 0 0 0 0 0 0
0 0 0 0 0 0 0 0 0 0 0 0 0 0 0 0 0 0 0 0 0 0 0 0 0 0 0 0 0 0 0 0 0 0 0 0 0 0 0 0 0 0 0
0 0 0 0 0 0 0 0 0 0 0 0 0 0 0 0 0 0 0 0 0 0 0 0 0 0 0 0 0 0 0 0 0 0 0 0 0 0 0 0 0 0 0
0 0 0 0 0 0 0 0 0 0 0 0 0 0 0 0 0 0 0 0 0 0 0 0 0 0 0 0 0 0 0 0 0 0 0 0 0 0 0 0 0 0 0